Location: Larkspur
(54.4391°N, 113.7691°W)
Time: 13:42:21
(UTC+00:00)

Oscar 19 - Pass Details

Date: 29 November 2023
Orbit: 771 x 789 km, 98.9° (Epoch: 01 March)

Event Time Altitude Azimuth Distance (km) Brightness Sun altitude
Rises 11:54:25 0° 20° (NNE) 3,268 14.2 -30.2°
Reaches altitude 10° 11:56:51 10° 27° (NNE) 2,338 13.4 -29.8°
Maximum altitude 12:01:45 42° 98° (E) 1,102 11.8 -29.1°
Drops below altitude 10° 12:06:37 10° 170° (S) 2,333 13.2 -28.4°
Sets 12:09:03 0° 177° (S) 3,259 13.9 -28.0°
